Location: Pardubice
(50.0330°N, 15.7830°E)
Time: 14:53:37
(UTC+02:00)

ISS - Visible Passes

Search period start: 15 May 2025 00:00
Search period end: 25 May 2025 00:00
Orbit: 416 x 420 km, 51.6° (Epoch: 15 May)

Date Brightness Start Highest point End Pass type
(mag) Time Alt. Az. Time Alt. Az. Time Alt. Az.
15 May -2.2 00:40:39 10° WNW 00:42:21 27° W 00:42:21 27° W visible
15 May -3.3 22:15:49 10° W 22:19:09 64° N 22:22:30 10° E visible
15 May -3.9 23:52:42 10° WNW 23:55:59 84° WSW 23:55:59 84° WSW visible
16 May -3.4 21:27:48 10° W 21:31:09 69° N 21:34:30 10° ENE visible
16 May -3.7 23:04:43 10° WNW 23:08:05 79° NNE 23:09:36 30° E visible
17 May -1.5 00:41:38 10° W 00:42:31 16° W 00:42:31 16° W visible
17 May -3.5 22:16:43 10° WNW 22:20:04 69° N 22:23:12 11° E visible
17 May -3.0 23:53:33 10° WNW 23:56:06 40° WSW 23:56:06 40° WSW visible
18 May -3.3 21:28:41 10° W 21:32:02 64° N 21:35:22 10° E visible
18 May -3.8 23:05:31 10° WNW 23:08:52 67° SSW 23:09:42 45° SE visible
19 May -3.8 22:17:30 10° WNW 22:20:52 86° SSW 22:23:18 18° ESE visible
19 May -1.9 23:54:34 10° W 23:56:12 20° WSW 23:56:12 20° WSW visible
20 May -3.6 21:29:28 10° WNW 21:32:50 78° NNE 21:36:11 10° E visible
20 May -3.0 23:06:22 10° W 23:09:28 34° SSW 23:09:48 33° SSW visible
21 May -3.4 22:18:14 10° WNW 22:21:30 49° SSW 22:23:25 21° SE visible
22 May -3.7 21:30:09 10° WNW 21:33:30 68° SSW 21:36:50 10° ESE visible
22 May -1.8 23:07:33 10° W 23:09:49 17° SW 23:09:57 17° SW visible
23 May -2.3 22:19:07 10° W 22:21:55 25° SW 22:23:36 17° S visible
24 May -2.8 21:30:51 10° W 21:33:57 35° SSW 21:37:03 10° SE visible
